sat.trackr.live / text

‹ back to catalog

AIST-2T 2

NORAD 67254 · 2025-313G

PAYLOAD ACTIVE UNKNOWN

§ Identity

Operator
Country
CIS
Launch date
2025-12-28
Launch site
VOSTO
Launch vehicle
Mass (kg)
RCS (m²)

External: N2YO · Heavens-Above · Gunter

§ Orbital elements

Epoch: 2026-09-20T19:25:12.774432Z

Period
92.26 min
Inclination
97.0740°
Eccentricity
0.0004769
Mean motion
15.60723203 rev/d
Perigee alt
382.3 km
Apogee alt
388.8 km
Semi-major
6,763.7 km
B*
1.9816e-4
RAAN
341.1757°
Arg perigee
200.7748°
Mean anomaly
159.3317°
Rev number
4,152

§ Raw data

AIST-2T 21 67254U 25313G   26263.80917563  .00016363  00000+0  19816-3 0  99922 67254  97.0740 341.1757 0004769 200.7748 159.3317 15.60723203 41525

JSON: /api/v1/satellites/67254 · /tle

For live sub-satellite position, see the globe view (requires WebGL).

§ Visibility from observer

Set your observer location to see the next 7 days of passes ≥ 10°. The values pass through the URL so the page stays shareable.

No JS? Fill the form by hand. The geolocation button needs JavaScript.

§ Radio — SatNOGS DB

ModeDescriptionDownlinkUplink
FM Telemetry 435.852 MHz
FM Telemetry 436.030 MHz

2 transmitters · refreshed weekly from db.satnogs.org